Location: Musselshell
(46.5176°N, 108.0911°W)
Time: 06:05:34
(UTC+00:00)

PicSat - Visible Passes

Search period start: 28 June 2022 00:00
Search period end: 08 July 2022 00:00
Orbit: 453 x 459 km, 97.4° (Epoch: 27 June)

Date Brightness Start Highest point End Pass type
(mag) Time Alt. Az. Time Alt. Az. Time Alt. Az.
28 Jun ? 04:08:22 10° ENE 04:08:47 10° ENE 04:09:13 10° NE visible
28 Jun ? 05:40:02 38° SSW 05:41:09 64° W 05:44:35 10° NNW visible
29 Jun ? 05:06:30 27° SE 05:07:59 45° ENE 05:11:18 10° N visible
29 Jun ? 06:40:16 11° WSW 06:41:07 12° W 06:42:33 10° WNW visible
30 Jun ? 04:32:57 12° ESE 04:34:57 19° ENE 04:37:27 10° NNE visible
30 Jun ? 06:06:43 25° SW 06:07:38 29° W 06:10:42 10° NW visible
01 Jul ? 05:33:07 39° S 05:34:16 80° WSW 05:37:44 10° NNW visible
02 Jul ? 04:59:29 23° ESE 05:01:01 37° ENE 05:04:14 10° N visible
02 Jul ? 06:33:15 14° WSW 06:34:04 15° W 06:36:05 10° NW visible
03 Jul ? 04:25:50 10° ESE 04:27:55 16° ENE 04:30:07 10° NNE visible
03 Jul ? 05:59:35 30° SW 06:00:30 35° W 06:03:43 10° NNW visible
04 Jul ? 05:25:54 39° SSE 05:27:04 81° ENE 05:30:32 10° N visible
05 Jul ? 04:52:10 20° ESE 04:53:46 30° ENE 04:56:49 10° N visible
05 Jul ? 06:25:55 17° WSW 06:26:41 18° W 06:29:07 10° NW visible
06 Jul ? 04:18:50 10° E 04:20:34 13° ENE 04:22:19 10° NNE visible
06 Jul ? 05:52:09 35° SW 05:53:04 44° W 05:56:23 10° NNW visible
07 Jul ? 05:18:21 36° SE 05:19:33 64° ENE 05:22:58 10° N visible
